User: anonymous   Login
Location: Borkenes
(68.7830°N, 16.1830°E)
Time: 08:20:01
(UTC+01:00)
Language:

SR - Orbit

View from above orbital plane
View from above orbital plane
View from above satellite
View from above satellite

Ground track
Ground track

The orbit data is extracted from the following two-line orbital elements,

1    46U 60007B   19347.86170998 -.00000043  00000-0  14819-4 0  9990
2    46  66.6888 190.6908 0217401 270.2606  87.3594 14.49262416112060
Epoch (UTC): 13 December 2019 20:40:51
Eccentricity: 0.0217401
inclination: 66.6888°
perigee height: 573 km
apogee height: 882 km
right ascension of ascending node: 190.6908°
argument of perigee: 270.2606°
revolutions per day: 14.49262416
mean anomaly at epoch: 87.3594°
orbit number at epoch: 11206

The dashed part of the orbit path shows where the satellite is in the earth's shadow,  

DLR